Saranac Lake, NY

5:09 AM EDT on May 28, 2017 (GMT -0400)
Adirondack Regional

Weather History for KSLK - August, 2013

Change the Weather History Date:

Tuesday, August 6, 2013

  Actual Average Record
Temperature  
Mean Temperature 56 °F 62 °F  
Max Temperature 72 °F 75 °F 92 °F (1955)
Min Temperature 39 °F 50 °F 36 °F (1951)
Degree Days  
Heating Degree Days 10 4  
Month to date heating degree days 24  
Since 1 June heating degree days 302  
Since 1 July heating degree days 118  
Cooling Degree Days 0 1  
Month to date cooling degree days 0 6  
Year to date cooling degree days 146 81  
Since 1 June cooling degree days 136 78  
Growing Degree Days 5 (Base 50)    
Moisture  
Dew Point 45 °F    
Average Humidity 69    
Maximum Humidity 100    
Minimum Humidity 38    
Precipitation  
Precipitation 0.00 in 0.13 in 1.38 in (1990)
Month to date precipitation 0.87 0.79  
Year to date precipitation 26.59 21.18  
Sea Level Pressure  
Sea Level Pressure 30.11 in    
Wind  
Wind Speed 2 mph (SW)    
Max Wind Speed 10 mph    
Max Gust Speed 28 mph    
Visibility 10 miles    
Events      
T = Trace of Precipitation, MM = Missing Value Source: NWS Daily Summary

Daily Weather History Graph

Daily Weather History Graph

Search for Another Location

Airport or City:

Trip Planner

Search our weather history database for the weather conditions in past years. The results will help you decide how hot, cold, wet, or windy it might be!

Date:

Astronomy

Aug. 06, 2013 Rise Set
Actual Time 5:49 AM EDT 8:14 PM EDT
Civil Twilight 5:17 AM EDT 8:47 PM EDT
Nautical Twilight 4:36 AM EDT 9:27 PM EDT
Astronomical Twilight 3:50 AM EDT 10:13 PM EDT
Moon 5:40 AM EDT (8/6) 7:44 PM EDT (8/6)
Length of Visible Light 15h 30m
Length of Day
14h 25m
Waning Crescent, 0% of the Moon is Illuminated
Aug 6
Waning Crescent
Aug 6
New
Aug 14
First Quarter
Aug 20
Full
Aug 28
Last Quarter

Hourly Weather History & Observations

Time (EDT) Temp. Dew Point Humidity Pressure Visibility Wind Dir Wind Speed Gust Speed Precip Events Conditions
12:51 AM 41.0 °F 39.0 °F 93% 30.09 in 10.0 mi Calm Calm - N/A   Clear
1:51 AM 39.9 °F 39.9 °F 100% 30.09 in 10.0 mi Calm Calm - N/A   Clear
2:51 AM 39.9 °F 39.0 °F 97% 30.09 in 10.0 mi Calm Calm - N/A   Clear
3:51 AM 41.0 °F 39.9 °F 96% 30.09 in 10.0 mi Calm Calm - N/A   Partly Cloudy
4:51 AM 42.1 °F 39.9 °F 92% 30.09 in 10.0 mi Calm Calm - N/A   Clear
5:51 AM 39.9 °F 39.0 °F 97% 30.11 in 10.0 mi Calm Calm - N/A   Clear
6:51 AM 43.0 °F 42.1 °F 97% 30.12 in 10.0 mi Calm Calm - N/A   Clear
7:51 AM 50.0 °F 48.0 °F 93% 30.12 in 10.0 mi Calm Calm - N/A   Clear
8:51 AM 57.0 °F 48.9 °F 74% 30.13 in 10.0 mi Calm Calm - N/A   Clear
9:51 AM 64.0 °F 48.9 °F 58% 30.12 in 10.0 mi Variable 4.6 mph - N/A   Clear
10:51 AM 66.0 °F 44.1 °F 45% 30.12 in 10.0 mi Calm Calm - N/A   Clear
11:51 AM 66.9 °F 45.0 °F 45% 30.12 in 10.0 mi WSW 4.6 mph - N/A   Clear
12:51 PM 66.0 °F 46.0 °F 48% 30.13 in 10.0 mi WSW 3.5 mph - N/A   Scattered Clouds
1:51 PM 69.1 °F 46.0 °F 44% 30.12 in 10.0 mi South 8.1 mph - N/A   Mostly Cloudy
2:51 PM 69.1 °F 45.0 °F 42% 30.10 in 10.0 mi Calm Calm - N/A   Overcast
3:51 PM 70.0 °F 46.0 °F 42% 30.11 in 10.0 mi SSW 4.6 mph - N/A   Overcast
4:51 PM 68.0 °F 48.9 °F 50% 30.11 in 10.0 mi WSW 5.8 mph - N/A   Partly Cloudy
5:51 PM 71.1 °F 46.0 °F 41% 30.10 in 10.0 mi SW 9.2 mph - N/A   Clear
6:51 PM 71.1 °F 44.1 °F 38% 30.10 in 10.0 mi SSW 5.8 mph - N/A   Clear
7:51 PM 63.0 °F 48.9 °F 60% 30.10 in 10.0 mi Calm Calm - N/A   Clear
8:51 PM 55.0 °F 51.1 °F 86% 30.11 in 10.0 mi Calm Calm - N/A   Partly Cloudy
9:51 PM 52.0 °F 48.9 °F 89% 30.12 in 10.0 mi Calm Calm - N/A   Clear
10:51 PM 48.9 °F 48.0 °F 97% 30.11 in 10.0 mi Calm Calm - N/A   Clear
11:51 PM 50.0 °F 48.0 °F 93% 30.11 in 10.0 mi Calm Calm - N/A   Mostly Cloudy